Regional Weather Roundup
Issued by NWS

Home | Current Version | Previous Version | Graphics & Text | Print | Product List | Glossary On
Versions: 1 2 3 4 5 6 7 8 9 10 11 12 13 14 15 16 17 18 19 20 21 22 23 24 25 26 27 28 29 30 31 32 33 34 35 36 37 38 39 40 41 42 43 44 45 46 47 48 49 50
000
ASUS43 KLOT 202306
RWRIL

ILLINOIS REGIONAL WEATHER ROUNDUP
NATIONAL WEATHER SERVICE CHICAGO/ROMEOVILLE IL
600 PM CDT WED AUG 20 2014

NOTE: "FAIR" INDICATES FEW OR NO CLOUDS BELOW 12,000 FEET WITH NO
SIGNIFICANT WEATHER AND/OR OBSTRUCTIONS TO VISIBILITY.

* THESE STATIONS ARE NOT UNDER NWS QUALITY CONTROL. THEY ALSO MAY NOT
  REPORT WEATHER SUCH AS PRECIPITATION OR FOG.

ILZ001-002-007-009-015-016-024-210000-
NORTHWEST ILLINOIS

CITY           SKY/WX    TMP DP  RH WIND       PRES   REMARKS
MOLINE         CLOUDY    75  68  78 S5        29.89F
STERLING*      PTSUNNY   79  70  73 W6        29.91S HX  81
SAVANNA*       MOSUNNY   79  67  66 SW7       29.88F HX  81
$$

ILZ003-004-008-010-011-017-018-210000-
NORTH CENTRAL ILLINOIS

CITY           SKY/WX    TMP DP  RH WIND       PRES   REMARKS
ROCKFORD       PTSUNNY   84  67  56 W10       29.90S HX  86
FREEPORT*      MOSUNNY   80  69  69 SW8       29.92F HX  83
ROCHELLE*      PTSUNNY   80  67  65 SW13      29.92R HX  82
DE KALB*       MOSUNNY   80  66  62 SW9       29.91S HX  82
PERU*          PTSUNNY   76  67  72 W6        29.91F
$$

ILZ005-006-012>014-019>023-210000-
NORTHEAST ILLINOIS

CITY           SKY/WX    TMP DP  RH WIND       PRES   REMARKS
CHICAGO-OHARE  PTSUNNY   84  62  47 W12       29.87S HX  85
CHICAGO-MIDWAY PTSUNNY   85  66  53 SW13      29.88R HX  87
AURORA         MOSUNNY   84  65  52 W10       29.90R HX  86
LANSING*       PTSUNNY   83  66  56 SW10      29.89R HX  85
JOLIET*        PTSUNNY   81  67  62 SW7       29.90S HX  84
WAUKEGAN       MOSUNNY   82  66  58 VRB5      29.87R HX  84
DUPAGE AIRPORT MOSUNNY   84  67  56 SW12      29.89R HX  86
KANKAKEE*      PTSUNNY   81  72  76 W15       29.92R HX  85
WHEELING       MOSUNNY   85  64  49 W9        29.88S HX  86
MORRIS*        MOSUNNY   81  72  73 SW8       29.90F HX  85
ROMEOVILLE*    MOSUNNY   81  65  58 SW10      29.89S HX  83
NORTHERLY ISL    N/A     85  62  46 SW5         N/A  HX  85
$$

LMZ740>746-210000-
SOUTHERN LAKE MICHIGAN

STATION/POSITION SKY/WX   TEMP    WIND        PRES    VSBY  WAVE
                          AIR SEA DIR/SP/G                  HT/PER
                          (F)     (DEG/KT/KT) (MB)    (MI)  (FT/S)
SOUTHERN BUOY              70 69   80/  8/  8 1011.7S         0
WAUKEGAN HARBOR            83     240/  9/ 10   N/A
HARRISON CRIB              83     250/ 12/ 14   N/A
BURNHAM HARBOR             84     230/  4/ 11   N/A
CALUMET HARBOR             84     240/  7/ 11 1010.5R
BURNS HARBOR               83     220/ 10/ 13   N/A
MICHIGAN CITY              79     240/  6/  7   N/A
MICHIGAN CITY 6N           77 74  260/  4/  4   N/A           1/ 3
ST. JOSEPH                 77 71  190/  2/  4   N/A           0
$$

ILZ025>027-034>036-040-047-049-050-058-095>099-210000-
WEST-CENTRAL ILLINOIS

CITY           SKY/WX    TMP DP  RH WIND       PRES   REMARKS
QUINCY         SUNNY     85  76  74 S6        29.91F HX  94
GALESBURG*     CLOUDY    81  73  76 S8        29.92F HX  85
MACOMB*        MOSUNNY   80  73  78 S8        29.94F HX  84
JACKSONVILLE*  MOSUNNY   82  74  75 S7        29.93F HX  88
PITTSFIELD*    MOSUNNY   85  76  74 SE6       29.93F HX  94
$$

ILZ028>032-037-038-041>044-048-051>054-059>061-210000-
CENTRAL ILLINOIS

CITY           SKY/WX    TMP DP  RH WIND       PRES   REMARKS
PONTIAC        LGT RAIN  75  70  83 SW5       29.92F
DECATUR        SUNNY     80  70  71 SW8       29.94S HX  83
PEORIA         PTSUNNY   81  72  74 SW8       29.92F HX  85
LACON*         CLOUDY    74  68  81 SW5       29.91R
LINCOLN*       MOSUNNY   83  70  66 SW5       29.91S HX  87
SPRINGFIELD    MOSUNNY   82  71  69 S10       29.94S HX  86
TAYLORVILLE    SUNNY     79  72  78 S6        29.95S HX  82
$$

ILZ033-039-045-046-055>057-062-063-210000-
EAST-CENTRAL ILLINOIS

CITY           SKY/WX    TMP DP  RH WIND       PRES   REMARKS
CHAMPAIGN      MOSUNNY   78  69  73 SW10      29.94S HX  80
DANVILLE*      RAIN      76  69  78 SW9       29.90R
RANTOUL*       MOSUNNY   79  67  67 W7        29.95R HX  81
MATTOON        MOSUNNY   78  70  76 S8        29.95S HX  80
PARIS*         MOSUNNY   78  72  82 SW6       29.94R HX  81
$$

ILZ079-100>102-210000-
SOUTHWEST ILLINOIS

CITY           SKY/WX    TMP DP  RH WIND       PRES   REMARKS
ALTON          SUNNY     82  75  78 E9        29.94F HX  89
BELLEVILLE     SUNNY     85  76  75 E6        29.92F HX  94
CAHOKIA*       SUNNY     86  75  69 SE6       29.91F HX  95
SPARTA*        PTSUNNY   82  74  78 E8        29.94F HX  88
$$

ILZ064>066-069>071-074>076-080>082-084>086-088>090-092>094-210000-
SOUTH-CENTRAL ILLINOIS

CITY           SKY/WX    TMP DP  RH WIND       PRES   REMARKS
CARBONDALE     CLOUDY    81  74  79 E5        29.93F HX  86
CAIRO*         MOSUNNY   92  76  59 SW6       29.92F HX 103
MARION         PTSUNNY   82  73  74 E8        29.94F HX  88
MT. VERNON     MOSUNNY   84  70  61 E5        29.95F HX  88
CENTRALIA*     MOSUNNY   88  66  48 CALM      29.95S HX  90
SALEM*         MOSUNNY   83  72  69 CALM      29.95F HX  89
$$

ILZ067-068-072-073-078-083-087-091-210000-
SOUTHEAST ILLINOIS

CITY           SKY/WX    TMP DP  RH WIND       PRES   REMARKS
LAWRENCEVILLE  PTSUNNY   80  71  74 SW7       29.95S HX  84
FLORA*         PTSUNNY   81  71  71 S3        29.95F HX  84
FAIRFIELD*     PTSUNNY   82  73  74 CALM      29.95F HX  88
HARRISBURG*    PTSUNNY   82  73  73 CALM      29.96F HX  87
ROBINSON*      PTSUNNY   80  71  75 CALM      29.95S HX  84
CARMI*         PTSUNNY   84  72  65 NE3       29.94F HX  89
$$

ABBREVIATIONS USED IN REMARKS
   TC - TEMPERATURE IN CELSIUS
  WCI - WIND CHILL INDEX
   HX - HEAT INDEX
  VSB - VISIBILITY
$$



USA.gov is the U.S. government's official web portal to all federal, state and local government web resources and services.